User: anonymous   Login
Location: ?ejkovice
(49.0137°N, 14.3821°E)
Time: 21:10:55
(UTC+00:00)
Language:

Cosmos 2333 Rocket - Orbit

View from above orbital plane
View from above orbital plane
View from above satellite
View from above satellite

Ground track
Ground track

The orbit data is extracted from the following two-line orbital elements,

1 24298U 96051B   24197.62308333 -.00000171  00000-0 -65962-4 0  9990
2 24298  70.8012   8.7020 0017861 301.2136  58.7233 14.12465728436631
Epoch (UTC): 15 July 2024 14:57:14
Eccentricity: 0.0017861
inclination: 70.8012°
perigee height: 838 km
apogee height: 864 km
right ascension of ascending node: 8.7020°
argument of perigee: 301.2136°
revolutions per day: 14.12465728
mean anomaly at epoch: 58.7233°
orbit number at epoch: 43663

The dashed part of the orbit path shows where the satellite is in the earth's shadow,  

DLR